Location: LDNL
(36.4545°S, 141.6685°E)
Time: 04:43:11
(UTC+10:00)

First-Move - Visible Passes

Search period start: 17 May 2022 00:00
Search period end: 27 May 2022 00:00
Orbit: 572 x 662 km, 97.6° (Epoch: 15 May)

Date Brightness Start Highest point End Pass type
(mag) Time Alt. Az. Time Alt. Az. Time Alt. Az.
19 May ? 18:08:08 10° SW 18:09:36 11° WSW 18:11:03 10° W visible
24 May ? 17:52:16 10° SSW 17:55:03 16° WSW 17:57:48 10° WNW visible
25 May ? 18:10:04 10° SW 18:11:04 11° WSW 18:12:04 10° WSW visible
